Flag for USA

Past Weather in 33°54'09"N, 118°02'56"W, USA — Yesterday and Last 2 Weeks

Now
65 °F

Clear.


Feels Like: 65 °F
Forecast: 86 / 63 °F
Wind: No wind

Location: Los Angeles / USC Campus Downtown

Current Time: Jul 10, 2020 at 12:32:37 am

Latest Report: Jul 9, 2020 at 11:52 pm


Visibility: 8 mi

Pressure: 29.94 "Hg

Humidity: 81%

Dew Point: 59 °F

Location of 33°54'09"N, 118°02'56"WLocation

Past Weather in 33°54'09"N, 118°02'56"W — Graph

°F

33°54'09"N, 118°02'56"W Temperature Yesterday

Maximum temperature yesterday: 80 °F (at 10:52 am)
Minimum temperature yesterday: 64 °F (at 1:52 am)
Average temperature yesterday: 72 °F

High & Low Weather Summary for the Past Weeks

 TemperatureHumidityPressure
High89 °F (Jul 5, 11:52 am)91% (Jul 6, 6:35 am)29.99 "Hg (Jul 6, 6:35 am)
Low61 °F (Jun 30, 4:52 am)29% (Jul 5, 11:52 am)29.76 "Hg (Jun 28, 5:52 pm)
Average70 °F67%29.88 "Hg
* Reported Jun 24 10:52 pm — Jul 9 10:52 pm, 33°54'09"N, 118°02'56"W. Weather by CustomWeather, © 2020

Note: Actual official high and low records may vary slightly from our data, if they occured in-between our weather recording intervals... More about our weather records

33°54'09"N, 118°02'56"W Weather History for the Previous 24 Hours

Scroll right to see more
 ConditionsComfort  
Time TempWeatherWind HumidityBarometerVisibility
10:52 pm
Thu, Jul 9
65 °FClear.No wind85%29.92 "Hg8 mi
9:52 pm67 °FClear.No wind79%29.90 "Hg10 mi
8:52 pm69 °FClear.3 mph73%29.88 "Hg10 mi
7:52 pm71 °FMild.N/A68%29.87 "HgN/A
6:52 pm76 °FSunny.3 mph58%29.86 "Hg10 mi
5:52 pm77 °FSunny.5 mph58%29.85 "Hg10 mi
4:52 pm77 °FSunny.5 mph58%29.86 "Hg10 mi
3:52 pm78 °FSunny.3 mph56%29.87 "Hg10 mi
2:52 pm79 °FSunny.No wind52%29.86 "Hg9 mi
1:52 pm80 °FSunny.No wind52%29.87 "Hg8 mi
12:52 pm80 °FSunny.5 mph52%29.87 "Hg7 mi
11:52 am80 °FSunny.3 mph52%29.88 "Hg8 mi
10:52 am80 °FSunny.No wind52%29.87 "Hg7 mi
9:52 am77 °FSunny.No wind58%29.88 "Hg8 mi
8:52 am73 °FPassing clouds.No wind66%29.89 "Hg7 mi
8:33 am72 °FScattered clouds.No wind68%29.89 "Hg6 mi
8:06 am69 °FOvercast.No wind73%29.89 "Hg6 mi
7:52 am68 °FOvercast.No wind76%29.88 "Hg6 mi
6:52 am67 °FOvercast.No wind79%29.87 "Hg6 mi
5:52 am66 °FOvercast.No wind78%29.86 "Hg7 mi
4:52 am66 °FOvercast.No wind78%29.87 "Hg8 mi
3:52 am66 °FOvercast.No wind75%29.87 "Hg9 mi
2:52 am65 °FOvercast.No wind81%29.87 "Hg9 mi
2:16 am65 °FPassing clouds.No wind78%29.88 "Hg10 mi
1:52 am64 °FClear.No wind81%29.88 "Hg10 mi
12:52 am65 °FPassing clouds.No wind78%29.88 "Hg10 mi
Weather by CustomWeather, © 2020

See weather overview